User: anonymous   Login
Location: Newark
(40.9833°N, 0.0333°W)
Time: 00:50:24
(UTC+00:00)
Language:

A-11 Canister half - Orbit

View from above orbital plane
View from above orbital plane
View from above satellite
View from above satellite

Ground track
Ground track

The orbit data is extracted from the following two-line orbital elements,

1    53U 60009E   20300.20608032 -.00000105 +00000-0 -19156-3 0  9992
2    53 047.2753 215.7712 0098025 106.5216 254.6368 12.17246484684492
Epoch (UTC): 26 October 2020 04:56:45
Eccentricity: 0.0098025
inclination: 47.2753°
perigee height: 1526 km
apogee height: 1683 km
right ascension of ascending node: 215.7712°
argument of perigee: 106.5216°
revolutions per day: 12.17246484
mean anomaly at epoch: 254.6368°
orbit number at epoch: 68449

The dashed part of the orbit path shows where the satellite is in the earth's shadow,  

DLR